Weather History for Hill City, KS

Change the Weather History Date:

Sunday, November 4, 2012

  Actual Average Record
Temperature  
Mean Temperature 52 °F 46 °F  
Max Temperature 71 °F 60 °F 83 °F (1955)
Min Temperature 32 °F 32 °F -2 °F (1991)
Degree Days  
Heating Degree Days 12    
Growing Degree Days 3 (Base 50)    
Moisture  
Dew Point 32 °F    
Average Humidity 50    
Maximum Humidity 82    
Minimum Humidity 20    
Precipitation  
Precipitation 0.00 in 0.05 in 0.00 in (2014)
Month to date precipitation 0.00 0.20  
Year to date precipitation 9.74 21.48  
Sea Level Pressure  
Sea Level Pressure 30.10 in    
Wind  
Wind Speed 7 mph (West)    
Max Wind Speed 10 mph    
Max Gust Speed -    
Visibility 10 miles    
Events      
T = Trace of Precipitation, MM = Missing Value Source: NWS Daily Summary

Daily Weather History Graph

Daily Weather History Graph

Search for Another Location

Airport:

Trip Planner

Search our weather history database for the weather conditions in past years. The results will help you decide how hot, cold, wet, or windy it might be!

Date:

Astronomy

Nov. 04, 2012 Rise Set
Actual Time 7:11 AM CST 5:34 PM CST
Civil Twilight 6:43 AM CST 6:02 PM CST
Nautical Twilight 6:11 AM CST 6:33 PM CST
Astronomical Twilight 5:39 AM CST 7:05 PM CST
Moon 10:14 PM CST (11/4) 11:55 AM CST (11/4)
Length of Visible Light 11h 18m
Length of Day
10h 22m
Waning Gibbous, 72% of the Moon is Illuminated
Nov 4
Waning Gibbous
Nov 6
Last Quarter
Nov 13
New
Nov 20
First Quarter
Nov 28
Full

Hourly Weather History & Observations

Time (CST) Temp. Windchill Dew Point Humidity Pressure Visibility Wind Dir Wind Speed Gust Speed Precip Events Conditions
12:53 AM 46.0 °F 41.9 °F 35.1 °F 66% 30.17 in 10.0 mi SSW 8.1 mph - N/A   Clear
1:53 AM 42.1 °F 39.2 °F 34.0 °F 73% 30.16 in 10.0 mi SW 4.6 mph - N/A   Clear
2:53 AM 43.0 °F 37.7 °F 34.0 °F 71% 30.14 in 10.0 mi SW 9.2 mph - N/A   Clear
3:53 AM 39.0 °F 36.8 °F 33.1 °F 79% 30.14 in 10.0 mi SW 3.5 mph - N/A   Clear
4:53 AM 35.1 °F 30.1 °F 30.0 °F 82% 30.14 in 10.0 mi WSW 5.8 mph - N/A   Clear
5:53 AM 37.0 °F 32.4 °F 30.9 °F 79% 30.15 in 10.0 mi West 5.8 mph - N/A   Clear
6:53 AM 39.0 °F 33.4 °F 32.0 °F 76% 30.14 in 10.0 mi WSW 8.1 mph - N/A   Clear
7:53 AM 42.1 °F 36.1 °F 32.0 °F 67% 30.14 in 10.0 mi WSW 10.4 mph - N/A   Clear
8:53 AM 46.0 °F 41.4 °F 34.0 °F 63% 30.13 in 10.0 mi WSW 9.2 mph - N/A   Clear
9:53 AM 52.0 °F - 34.0 °F 50% 30.11 in 10.0 mi WSW 10.4 mph - N/A   Clear
10:53 AM 57.0 °F - 34.0 °F 42% 30.09 in 10.0 mi West 5.8 mph - N/A   Clear
11:53 AM 63.0 °F - 34.0 °F 34% 30.06 in 10.0 mi Variable 3.5 mph - N/A   Clear
12:53 PM 66.0 °F - 33.1 °F 29% 30.03 in 10.0 mi West 5.8 mph - N/A   Clear
1:53 PM 71.1 °F - 28.0 °F 20% 30.01 in 10.0 mi West 6.9 mph - N/A   Clear
2:53 PM 69.1 °F - 27.0 °F 21% 30.00 in 10.0 mi NW 8.1 mph - N/A   Clear
3:53 PM 68.0 °F - 28.0 °F 22% 30.00 in 10.0 mi NW 5.8 mph - N/A   Clear
4:53 PM 64.9 °F - 28.0 °F 25% 30.03 in 10.0 mi NNW 6.9 mph - N/A   Clear
5:53 PM 61.0 °F - 28.9 °F 30% 30.06 in 10.0 mi North 9.2 mph - N/A   Clear
6:53 PM 59.0 °F - 30.0 °F 33% 30.09 in 10.0 mi NNE 6.9 mph - N/A   Overcast
7:53 PM 55.9 °F - 30.9 °F 39% 30.12 in 10.0 mi North 10.4 mph - N/A   Mostly Cloudy
8:53 PM 54.0 °F - 32.0 °F 43% 30.13 in 10.0 mi North 6.9 mph - N/A   Overcast
9:53 PM 52.0 °F - 32.0 °F 47% 30.14 in 10.0 mi North 9.2 mph - N/A   Partly Cloudy
10:53 PM 51.1 °F - 33.1 °F 50% 30.13 in 10.0 mi WNW 4.6 mph - N/A   Mostly Cloudy